Tracking 18945 objects as of 19-Jan-2018
HD Live streaming from Space Station
objects crossing your sky now

FENGYUN 1C DEB

Track FENGYUN 1C DEB now!
10-day predictions


NORAD ID: 37430
Int'l Code: 1999-025EGY
Perigee: 835.6 km
Apogee: 868.1 km
Inclination: 99.0 °
Period: 101.8 minutes
Semi major axis: 7222 km
RCS: 0.0066 m2 (small)
Launch date: May 10, 1999
Source: People's Republic of China (PRC)
Launch site: Taiyaun Space Center, China (TSC)

Note: This is SATELLITE DEBRIS
aabbcc
Your satellite tracking list
Your tracking list is empty




NASA's NSSDC Master Catalog

Two Line Element Set (TLE):
1 37430U 99025EGY 18018.28322886  .00000606  00000-0  34037-3 0  9991
2 37430  98.9968  55.0490 0022532  37.4627 322.8111 14.14294373523314
Source of the keplerian elements: AFSPC